Location: Doverdale
(52.2833°N, 2.2000°W)
Time: 11:54:54
(UTC+00:00)

Aureole 3 - Pass Details

Date: 29 October 2020
Orbit: 382 x 1232 km, 82.5° (Epoch: 25 November)

Event Time Altitude Azimuth Distance (km) Brightness Sun altitude
Rises 17:31:14 0° 164° (SSE) 2,325 6.5 -7.7°
Reaches altitude 10° 17:33:26 10° 151° (SSE) 1,427 5.3 -8.0°
Maximum altitude 17:36:01 26° 92° (E) 802 3.6 -8.4°
Drops below altitude 10° 17:38:36 10° 33° (NNE) 1,430 5.0 -8.8°
Sets 17:40:48 0° 20° (NNE) 2,332 6.2 -9.1°
